Location: Lafig�re
(44.4503°N, 4.0357°E)
Time: 21:45:20
(UTC+00:00)

Cosmos 1092 Rocket - Pass Details

Date: 27 January 2021
Orbit: 954 x 995 km, 83.0° (Epoch: 07 March)

Event Time Altitude Azimuth Distance (km) Brightness Sun altitude
Rises 04:30:13 0° 356° (N) 3,645 7.0 -28.1°
Reaches altitude 10° 04:32:49 10° 1° (N) 2,697 6.3 -27.6°
Maximum altitude 04:38:48 51° 77° (ENE) 1,195 4.7 -26.5°
Drops below altitude 10° 04:44:47 10° 153° (SSE) 2,700 6.6 -25.5°
Sets 04:47:22 0° 158° (SSE) 3,648 7.3 -25.0°
